G4MDH Weather Reports


time (UTC)temp
C
wind
direction
speed
KPH
gust
KPH
rain 1hr
cm
rain 24hr
cm
rain mn
cm
humidity
%
barometer
mb
20260504214813 10 128 0.0 1.6 0.00 0.20 0.05 89 1015.0
20260504214322 10 129 0.0 1.6 0.00 0.20 0.05 89 1015.0
20260504213824 10 130 0.0 1.6 0.00 0.20 0.05 89 1015.0
20260504213333 10 138 0.0 1.6 0.00 0.20 0.05 89 1015.0
20260504212814 10 138 0.0 1.6 0.00 0.20 0.05 88 1015.0
20260504212315 11 135 0.0 3.2 0.00 0.20 0.05 88 1014.9
20260504211824 11 145 0.0 3.2 0.00 0.20 0.05 88 1015.0
20260504211313 11 137 0.0 1.6 0.00 0.20 0.05 88 1015.0
20260504210814 11 148 0.0 3.2 0.00 0.20 0.05 88 1015.0
20260504210315 11 136 0.0 3.2 0.00 0.20 0.05 88 1015.0
20260504205823 11 125 0.0 3.2 0.00 0.20 0.05 88 1015.1
20260504205325 11 146 0.0 1.6 0.00 0.20 0.05 88 1015.1
20260504204834 11 155 0.0 3.2 0.00 0.20 0.05 88 1015.1
20260504204316 11 155 0.0 3.2 0.00 0.20 0.05 87 1015.1
20260504203818 11 96 0.0 3.2 0.00 0.20 0.05 87 1015.1
20260504203318 11 131 0.0 4.8 0.00 0.20 0.05 87 1015.1
20260504202826 11 113 1.6 4.8 0.00 0.20 0.05 87 1015.0
20260504202327 11 133 1.6 4.8 0.00 0.20 0.05 87 1015.1
20260504201836 11 136 0.0 3.2 0.00 0.20 0.05 86 1015.1
20260504201319 11 135 0.0 3.2 0.00 0.20 0.05 86 1014.9
20260504200821 12 132 0.0 1.6 0.00 0.20 0.05 86 1015.0
20260504200348 12 127 0.0 4.8 0.00 0.20 0.05 85 1014.8
20260504195834 12 120 0.0 4.8 0.00 0.20 0.05 85 1014.9
20260504195313 12 129 0.0 3.2 0.00 0.20 0.05 85 1014.8
20260504194834 12 139 0.0 1.6 0.00 0.20 0.05 85 1014.8
20260504194322 12 143 0.0 1.6 0.00 0.20 0.05 84 1014.7
20260504193847 12 143 0.0 1.6 0.00 0.20 0.05 84 1014.7
20260504193313 12 108 0.0 3.2 0.00 0.20 0.05 84 1014.6
20260504192812 12 141 1.6 3.2 0.00 0.20 0.05 84 1014.5
20260504192314 12 103 0.0 3.2 0.00 0.20 0.05 84 1014.6
20260504191823 12 103 0.0 4.8 0.00 0.20 0.05 83 1014.6
20260504191332 13 137 0.0 4.8 0.00 0.20 0.05 83 1014.6
20260504190843 13 129 0.0 3.2 0.00 0.20 0.05 83 1014.5
20260504185812 13 125 3.2 6.4 0.00 0.20 0.05 83 1014.5
20260504185312 13 134 0.0 3.2 0.00 0.20 0.05 83 1014.4
20260504184814 13 133 0.0 4.8 0.00 0.20 0.05 82 1014.5
20260504184317 13 145 0.0 4.8 0.00 0.20 0.05 82 1014.4
20260504183819 13 107 1.6 4.8 0.00 0.20 0.05 81 1014.2
20260504183329 13 113 1.6 4.8 0.00 0.20 0.05 81 1014.1
20260504182838 13 134 1.6 4.8 0.00 0.20 0.05 81 1014.2